EHI
0 0 0 0 0 0 0 0 0 0 0 0 0 0 0 0 0 0 0 0 0 0 0 0 0 0 0 0 0 0 0 0 0 0 0 0 0 0 0 0 0 0 0 0
0 0 0 0 0 0 0 0 0 0 0 0 0 0 0 0 0 0 0 0 0 0 0 0 0 0 0 0 0 0 0 0 0 0 0 0 0 0 0 0 0 0 0 0
0 0 0 0 0 0 0 0 0 0 0 0 0 0 0 0 0 0 0 0 0 0 0 0 0 0 0 0 0 0 0 0 0 0 0 0 0 0 0 0 0 0 0 0
0 0 0 0 0 0 0 0 0 0 0 0 0 0 0 0 0 0 0 0 0 0 0 0 0 0 0 0 0 0 0 0 0 0 0 0 0 0 0 0 0 0 0 0
0 0 0 0 0 0 0 0 0 0 0 0 0 0 0 0 0 0 0 0 0 0 0 0 0 0 0 0 0 0 0 0 0 0 0 0 0 0 0 0 0 0 0 0
0 0 0 0 0 0 0 0 0 0 0 0 0 0 0 0 0 0 0 0 0 0 0 0 0 0 0 0 0 0 0 0 0 0 0 0 0 0 0 0 0 0 0 0
0 0 0 0 0 0 0 0 0 0 0 0 0 0 0 0 0 0 0 0 0 0 0 0 0 0 0 0 0 0 0 0 0 0 0 0 0 0 0 0 0 0 0 0
0 0 0 0 0 0 0 0 0 0 0 0 0 0 0 0 0 0 0 0 0 0 0 0 0 0 0 0 0 0 0 0 0 0 0 0 0 0 0 0 0 0 0 0
0 0 0 0 0 0 0 0 0 0 0 0 0 0 0 0 0 0 0 0 0 0 0 0 0 0 0 0 0 0 0 0 0 0 0 0 0 0 0 0 0 0 0 0
0 0 0 0 0 0 0 0 0 0 0 0 0 0 0 0 0 0 0 0 0 0 0 0 0 0 0 0 0 0 0 0 0 0 0 0 0 0 0 0 0 0 0 0
0 0 0 0 0 0 0 0 0 0 0 0 0 0 0 0 0 0 0 0 0 0 0 0 0 0 0 0 0 0 0 0 0 0 0 0 0 0 0 0 0 0 0 0
0 0 0 0 0 0 0 0 0 0 0 0 0 0 0 0 0 0 0 0 0 0 0 0 0 0 0 0 0 0 0 0 0 0 0 0 0 0 0 0 0 0 0 0
0 0 0 0 0 0 0 0 0 0 0 0 0 0 0 0 0 0 0 0 0 0 0 0 0 0 0 0 0 0 0 0 0 0 0 0 0 0 0 0 0 0 0 0
0 0 0 0 0 0 0 0 0 0 0 0 0 0 0 0 0 0 0 0 0 0 0 0 0 0 0 0 0 0 0 0 0 0 0 0 0 0 0 0 0 0 0 0
0 0 0 0 0 0 0 0 0 0 0 0 0 0 0 0 0 0 0 0 0 0 0 0 0 0 0 0 0 0 0 0 0 0 0 0 0 0 0 0 0 0 0 0
0 0 0 0 0 0 0 0 0 0 0 0 0 0 0 0 0 0 0 0 0 0 0 0 0 0 0 0 0 0 0 0 0 0 0 0 0 0 0 0 0 0 0 0
0 0 0 0 0 0 0 0 0 0 0 0 0 0 0 0 0 0 0 0 0 0 0 0 0 0 0 0 0 0 0 0 0 0 0 0 0 0 0 0 0 0 0 0
0 0 0 0 0 0 0 0 0 0 0 0 0 0 0 0 0 0 0 0 0 0 0 0 0 0 0 0 0 0 0 0 0 0 0 0 0 0 0 0 0 0 0 0
0 0 0 0 0 0 0 0 0 0 0 0 0 0 0 0 0 0 0 0 0 0 0 0 0 0 0 0 0 0 0 0 0 0 0 0 0 0 0 0 0 0 0 0
0 0 0 0 0 0 0 0 0 0 0 0 0 0 0 0 0 0 0 0 0 0 0 0 0 0 0 0 0 0 0 0 0 0 0 0 0 0 0 0 0 0 0 0
0 0 0 0 0 0 0 0 0 0 0 0 0 0 0 0 0 0 0 0 0 0 0 0 0 0 0 0 0 0 0 0 0 0 0 0 0 0 0 0 0 0 0 0
0 0 0 0 0 0 0 0 0 0 0 0 0 0 0 0 0 0 0 0 0 0 0 0 0 0 0 0 0 0 0 0 0 0 0 0 0 0 0 0 0 0 0 0
0 0 0 0 0 0 0 0 0 0 0 0 0 0 0 0 0 0 0 0 0 0 0 0 0 0 0 0 0 0 0 0 0 0 0 0 0 0 0 0 0 0 0 0
0 0 0 0 0 0 0 0 0 0 0 0 0 0 0 0 0 0 0 0 0 0 0 0 0 0 0 0 0 0 0 0 0 0 0 0 0 0 0 0 0 0 0 0
0 0 0 0 0 0 0 0 0 0 0 0 0 0 0 0 0 0 0 0 0 0 0 0 0 0 0 0 0 0 0 0 0 0 0 0 0 0 0 0 0 0 0 0
0 0 0 0 0 0 0 0 0 0 0 0 0 0 0 0 0 0 0 0 0 0 0 0 0 0 0 0 0 0 0 0 0 0 0 0 0 0 0 0 0 0 0 0
Wind_Speed
5 8 12 17 20 19 14 17 21 20 16 11 19 22 20 21 23 24 24 22 19 14 12 10 10 10 10 9 9 10 13 13 13 11 12 13 13 12 12 12 14 16 16 17
5 13 18 11 6 10 15 19 23 21 14 11 17 21 18 19 23 23 22 19 14 12 11 11 12 12 12 12 11 9 9 10 12 11 10 9 10 10 11 10 13 16 16 17
14 5 4 9 11 12 17 17 19 20 15 9 12 14 9 10 15 18 18 13 8 7 10 13 14 15 16 16 15 11 9 7 10 11 8 7 7 7 9 11 11 14 15 16
11 6 3 7 12 14 18 14 16 16 13 9 4 13 6 10 15 16 11 5 8 11 13 14 16 18 19 18 16 15 12 7 5 8 9 11 10 10 10 8 9 11 14 15
7 4 5 9 12 10 11 5 5 7 9 12 7 12 9 8 12 11 3 9 12 14 15 17 18 18 19 18 17 16 15 11 6 4 8 10 10 9 7 7 9 11 12 14
7 3 6 7 4 5 4 2 3 3 6 14 10 12 10 8 9 1 8 13 14 15 16 17 17 17 18 19 19 18 17 16 12 6 6 9 11 10 10 9 8 9 9 11
7 6 5 4 4 2 4 4 6 7 7 10 2 8 9 8 2 5 10 13 14 15 15 16 18 19 19 20 20 19 20 19 16 12 8 7 9 11 12 11 10 10 9 10
11 13 6 7 8 5 6 7 8 8 11 14 3 11 7 2 5 9 12 12 13 14 14 15 15 16 16 17 18 18 19 18 18 16 13 9 9 8 8 10 10 10 9 10
8 9 0 3 4 5 6 8 6 5 7 14 15 11 6 3 6 10 11 11 12 12 12 13 13 14 14 15 16 16 16 16 17 16 15 13 11 9 10 11 11 10 11 10
4 11 6 2 2 6 6 3 2 5 8 13 18 21 15 6 5 7 8 9 9 9 10 11 11 12 12 12 13 14 15 15 15 15 13 11 13 12 11 10 11 12 13 12
5 8 9 5 10 14 8 7 10 9 8 10 14 15 2 6 6 6 6 6 7 7 8 8 9 9 10 10 12 13 13 14 14 14 13 13 13 13 12 10 11 11 12 13
8 8 12 16 15 14 18 21 19 17 17 15 15 16 6 9 7 6 5 4 4 6 7 8 9 10 10 11 12 12 12 13 13 13 12 12 12 12 12 12 12 12 12 12
4 6 9 10 8 3 8 10 13 13 11 14 17 11 8 8 6 4 3 2 3 6 8 9 10 10 11 11 11 11 11 12 12 12 12 12 13 13 13 13 13 12 12 12
7 8 14 20 18 11 10 9 8 8 9 11 13 12 8 9 3 1 1 0 1 4 6 8 9 10 10 11 11 11 12 11 12 11 11 12 12 13 13 13 13 13 13 12
3 11 16 20 22 21 20 20 19 19 18 16 16 20 21 15 4 1 2 3 4 4 5 7 8 8 9 10 10 10 11 11 11 11 11 11 12 12 13 13 14 14 13 12
3 8 10 16 20 19 21 23 25 24 23 24 26 28 9 3 0 2 4 5 7 7 7 8 8 9 9 9 9 9 10 10 10 11 11 11 11 12 12 13 14 14 14 13
5 7 9 17 17 15 19 21 25 25 25 25 26 13 5 1 3 6 8 9 10 9 9 10 10 10 9 9 9 9 9 9 10 10 10 10 11 12 13 13 14 14 14 14
13 11 8 10 7 22 14 5 11 17 18 10 2 4 2 3 7 9 10 11 12 11 11 12 12 13 11 11 10 10 9 10 10 10 10 10 11 12 13 14 15 15 14 14
16 13 9 7 13 17 11 6 5 8 8 4 5 4 4 6 10 12 10 11 13 14 13 13 13 13 13 13 11 10 11 11 11 12 11 11 11 12 14 15 16 15 15 15
5 11 10 9 11 11 6 1 2 2 5 4 5 6 8 8 11 13 12 12 14 15 14 13 13 13 13 13 10 12 13 13 14 13 12 12 11 11 14 16 17 16 15 16
3 6 11 14 13 10 4 4 4 6 2 5 9 11 12 12 14 16 16 15 15 16 16 15 14 13 13 12 11 14 16 16 14 13 13 13 13 13 15 16 16 16 16 17
6 6 6 5 9 10 4 7 6 6 5 9 12 13 15 16 17 17 17 17 17 17 16 14 13 14 15 13 13 16 18 16 14 14 15 15 15 15 14 16 17 17 16 17
10 9 6 9 9 6 6 10 10 12 16 17 16 16 16 17 17 17 17 16 15 13 12 12 13 16 16 14 13 16 18 16 16 15 16 17 19 17 16 17 18 17 15 15
13 13 13 13 17 19 18 19 20 20 19 17 16 15 15 16 15 13 12 11 11 12 12 12 13 16 17 15 15 15 17 17 16 19 21 19 19 19 18 15 15 14 14 15
15 7 12 18 21 20 21 21 20 19 14 12 9 6 6 7 8 8 9 10 10 11 11 12 13 16 18 18 18 17 17 18 20 21 21 20 18 18 17 16 15 17 16 17
18 17 18 19 20 18 19 17 15 15 11 5 4 2 1 3 7 8 8 9 10 12 12 13 14 16 18 18 19 18 17 17 19 19 18 16 15 15 15 16 17 24 27 31
Wind_Direction
170 202 218 225 225 248 280 279 276 274 275 274 272 276 279 281 280 278 277 275 276 294 321 338 333 326 315 302 277 251 236 223 212 207 207 211 214 213 214 215 211 206 201 196
172 231 240 254 255 254 261 269 275 281 281 273 281 284 281 268 266 269 275 281 301 323 340 4 11 9 358 346 334 304 262 234 216 213 210 216 219 219 217 216 216 212 207 201
233 265 255 226 234 246 252 258 273 283 298 269 287 281 256 255 258 263 268 282 316 347 10 25 27 24 18 11 360 346 318 263 225 214 210 208 221 231 219 217 217 214 212 208
250 277 244 225 239 241 266 265 271 281 286 284 305 296 246 247 265 266 277 340 29 38 37 34 32 28 23 15 10 8 0 337 260 217 213 210 214 223 227 222 219 214 213 214
239 217 210 232 245 233 258 310 279 268 266 275 242 267 282 216 252 264 330 46 50 45 42 39 34 30 26 21 20 17 18 17 355 246 228 229 236 243 247 235 225 217 211 216
256 227 223 232 244 227 242 285 267 234 257 270 255 239 283 205 227 233 65 54 47 45 45 42 38 35 30 27 27 25 25 25 13 343 270 250 251 253 252 243 234 221 212 214
262 226 225 209 224 179 184 242 286 276 251 271 135 233 262 233 262 45 56 57 52 46 43 37 33 32 30 29 28 28 28 26 19 10 341 299 277 268 261 256 245 233 221 215
284 278 214 201 218 219 196 214 236 266 276 286 240 246 255 284 62 72 74 69 56 47 41 39 34 32 30 29 28 28 29 26 21 17 5 344 313 287 275 267 259 248 237 229
265 274 17 206 224 208 194 218 244 246 272 278 266 255 256 191 99 81 70 61 51 43 37 35 32 30 28 28 27 26 26 24 21 18 13 4 349 321 297 284 271 263 253 244
260 279 276 295 230 234 241 243 184 221 239 254 266 271 268 203 139 83 63 54 47 40 35 31 29 26 25 24 23 25 25 22 17 14 13 8 4 350 330 308 290 276 266 256
197 253 274 243 231 248 228 217 227 237 228 246 263 268 354 136 126 109 82 60 44 35 30 28 26 23 22 20 19 19 18 16 12 9 6 5 4 360 352 336 315 298 283 268
218 238 263 262 258 253 252 247 240 242 242 240 253 260 114 124 120 117 104 75 47 29 24 20 17 15 15 15 14 13 10 10 5 1 0 1 1 360 357 348 335 320 300 282
217 228 266 270 252 229 246 253 255 257 261 252 253 253 133 140 135 125 110 76 33 15 11 7 6 4 4 4 3 4 3 3 358 355 356 357 357 355 352 346 339 330 316 297
292 246 253 268 279 291 276 274 269 257 258 262 254 266 246 255 264 132 108 256 323 344 350 352 351 350 350 350 351 352 352 354 351 350 351 353 352 348 343 340 338 333 324 310
302 264 267 272 278 279 277 276 272 265 267 271 277 280 282 296 309 315 290 263 269 297 321 331 330 329 331 333 336 339 338 343 343 341 343 344 341 340 338 337 335 332 326 316
312 272 280 276 277 276 275 270 268 269 272 271 274 275 300 64 57 296 305 285 277 291 307 314 313 310 309 312 315 318 321 327 330 328 329 330 332 334 334 332 329 327 326 321
255 255 269 272 280 286 263 259 267 270 268 273 277 295 90 52 313 311 311 302 289 293 304 312 314 309 301 297 296 298 302 308 311 311 314 318 323 325 325 324 323 322 320 316
250 255 258 269 261 255 271 306 273 272 276 283 272 128 162 288 299 295 291 291 286 285 295 306 311 309 303 295 289 288 289 292 294 297 301 307 314 316 317 317 315 314 313 309
237 244 246 247 257 268 280 255 226 249 266 202 179 195 264 292 297 289 284 280 278 278 285 294 301 303 299 294 292 288 285 285 285 287 291 298 306 308 310 309 308 308 306 301
226 224 234 236 250 258 275 87 131 220 260 182 201 244 278 290 292 302 316 303 288 281 282 288 297 300 295 295 294 286 285 286 285 286 289 294 297 298 299 300 300 299 296 292
206 215 227 241 253 266 273 145 168 229 258 192 226 255 275 273 276 294 301 299 292 287 286 291 297 298 296 299 296 288 288 289 292 292 290 290 293 295 294 293 291 291 290 288
226 233 222 226 245 259 158 165 210 246 270 275 280 281 282 282 285 289 292 296 297 296 298 303 305 300 301 305 302 295 294 300 303 299 294 294 294 293 290 288 286 285 283 281
226 228 218 206 241 271 201 219 248 275 287 292 292 290 288 287 287 290 294 299 303 307 309 311 307 303 302 308 309 301 304 312 310 304 297 293 292 288 285 281 281 280 276 271
247 241 247 253 260 266 266 264 270 275 279 283 285 287 288 288 291 296 299 304 309 311 314 317 315 307 305 313 314 311 314 315 308 299 296 295 293 290 286 280 275 272 270 269
247 237 244 255 265 274 269 267 269 272 271 271 276 284 291 296 295 301 304 309 314 317 322 322 315 308 308 313 312 313 311 308 300 297 295 294 291 288 287 281 273 273 265 264
249 247 248 257 265 267 271 274 272 269 268 265 274 280 344 322 306 312 309 316 319 319 320 315 311 308 307 308 305 305 304 300 297 296 295 293 291 289 286 285 283 275 272 274